Time,TemperatureF,DewpointF,PressureIn,WindDirection,WindDirectionDegrees,WindSpeedMPH,WindSpeedGustMPH,Humidity,HourlyPrecipIn,Conditions,Clouds,dailyrainin,SolarRadiationWatts/m^2,SoftwareType,DateUTC
2013-03-16 00:05:00,62.3,55.0,30.19,NW,325,6.0,-999.0,78,-99.99,,,0.00,0,weatherlink.com 1.10,2013-03-16 04:05:00,
2013-03-16 00:20:00,62.4,55.0,30.19,NW,325,5.0,-999.0,78,-99.99,,,0.00,0,weatherlink.com 1.10,2013-03-16 04:20:00,
2013-03-16 00:35:00,62.2,56.0,30.19,NW,315,3.0,-999.0,79,-99.99,,,0.00,0,weatherlink.com 1.10,2013-03-16 04:35:00,
2013-03-16 00:50:00,62.1,56.0,30.19,NW,304,4.0,-999.0,79,-99.99,,,0.00,0,weatherlink.com 1.10,2013-03-16 04:50:00,
2013-03-16 01:05:00,61.8,55.0,30.19,WNW,294,0.0,-999.0,79,-99.99,,,0.00,0,weatherlink.com 1.10,2013-03-16 05:05:00,
2013-03-16 01:20:00,61.5,55.0,30.18,WNW,290,3.0,-999.0,80,-99.99,,,0.00,0,weatherlink.com 1.10,2013-03-16 05:20:00,
2013-03-16 01:35:00,61.1,55.0,30.18,WNW,290,0.0,-999.0,80,-99.99,,,0.00,0,weatherlink.com 1.10,2013-03-16 05:35:00,
2013-03-16 01:50:00,60.8,55.0,30.18,WNW,302,5.0,-999.0,81,-99.99,,,0.00,0,weatherlink.com 1.10,2013-03-16 05:50:00,
2013-03-16 02:05:00,60.7,55.0,30.17,WNW,302,5.0,-999.0,82,-99.99,,,0.00,0,weatherlink.com 1.10,2013-03-16 06:05:00,
2013-03-16 02:20:00,60.7,55.0,30.17,NW,311,5.0,-999.0,82,-99.99,,,0.00,0,weatherlink.com 1.10,2013-03-16 06:20:00,
2013-03-16 02:35:00,60.6,55.0,30.16,NW,304,7.0,-999.0,83,-99.99,,,0.00,0,weatherlink.com 1.10,2013-03-16 06:35:00,
2013-03-16 02:50:00,60.3,55.0,30.16,WNW,303,6.0,-999.0,83,-99.99,,,0.00,0,weatherlink.com 1.10,2013-03-16 06:50:00,
2013-03-16 03:05:00,60.0,55.0,30.16,NW,304,2.0,-999.0,84,-99.99,,,0.00,0,weatherlink.com 1.10,2013-03-16 07:05:00,
2013-03-16 03:20:00,60.0,55.0,30.16,WNW,296,6.0,-999.0,84,-99.99,,,0.00,0,weatherlink.com 1.10,2013-03-16 07:20:00,
2013-03-16 03:35:00,60.0,56.0,30.16,NW,306,5.0,-999.0,85,-99.99,,,0.00,0,weatherlink.com 1.10,2013-03-16 07:35:00,
2013-03-16 03:50:00,60.0,56.0,30.15,NW,307,5.0,-999.0,85,-99.99,,,0.00,0,weatherlink.com 1.10,2013-03-16 07:50:00,
2013-03-16 04:05:00,59.9,55.0,30.15,WNW,296,2.0,-999.0,85,-99.99,,,0.00,0,weatherlink.com 1.10,2013-03-16 08:05:00,
2013-03-16 04:20:00,60.2,56.0,30.15,WNW,286,2.0,-999.0,85,-99.99,,,0.00,0,weatherlink.com 1.10,2013-03-16 08:20:00,
2013-03-16 04:35:00,60.0,56.0,30.15,West,271,0.0,-999.0,85,-99.99,,,0.00,0,weatherlink.com 1.10,2013-03-16 08:35:00,
2013-03-16 04:50:00,59.8,55.0,30.16,West,271,0.0,-999.0,84,-99.99,,,0.00,0,weatherlink.com 1.10,2013-03-16 08:50:00,
2013-03-16 05:05:00,59.8,55.0,30.15,WNW,284,0.0,-999.0,84,-99.99,,,0.00,0,weatherlink.com 1.10,2013-03-16 09:05:00,
2013-03-16 05:20:00,59.8,55.0,30.16,WNW,283,2.0,-999.0,84,-99.99,,,0.00,0,weatherlink.com 1.10,2013-03-16 09:20:00,
2013-03-16 05:35:00,60.1,56.0,30.15,WSW,253,0.0,-999.0,85,-99.99,,,0.00,0,weatherlink.com 1.10,2013-03-16 09:35:00,
2013-03-16 05:50:00,59.9,55.0,30.16,West,279,0.0,-999.0,85,-99.99,,,0.00,0,weatherlink.com 1.10,2013-03-16 09:50:00,
2013-03-16 06:05:00,59.7,55.0,30.16,West,279,0.0,-999.0,85,-99.99,,,0.00,0,weatherlink.com 1.10,2013-03-16 10:05:00,
2013-03-16 06:20:00,59.9,55.0,30.16,West,259,4.0,-999.0,85,-99.99,,,0.00,0,weatherlink.com 1.10,2013-03-16 10:20:00,
2013-03-16 06:35:00,59.9,55.0,30.17,West,269,0.0,-999.0,85,-99.99,,,0.00,0,weatherlink.com 1.10,2013-03-16 10:35:00,
2013-03-16 06:50:00,59.8,55.0,30.17,WNW,292,0.0,-999.0,84,-99.99,,,0.00,0,weatherlink.com 1.10,2013-03-16 10:50:00,
2013-03-16 07:05:00,59.6,55.0,30.17,WNW,292,0.0,-999.0,84,-99.99,,,0.00,0,weatherlink.com 1.10,2013-03-16 11:05:00,
2013-03-16 07:20:00,59.5,55.0,30.18,WNW,288,4.0,-999.0,84,-99.99,,,0.00,0,weatherlink.com 1.10,2013-03-16 11:20:00,
2013-03-16 07:35:00,59.6,55.0,30.18,WNW,290,4.0,-999.0,84,-99.99,,,0.00,9,weatherlink.com 1.10,2013-03-16 11:35:00,
2013-03-16 07:50:00,59.7,55.0,30.18,WNW,295,4.0,-999.0,84,-99.99,,,0.00,21,weatherlink.com 1.10,2013-03-16 11:50:00,
2013-03-16 08:05:00,59.8,55.0,30.19,WNW,296,0.0,-999.0,84,-99.99,,,0.00,44,weatherlink.com 1.10,2013-03-16 12:05:00,
2013-03-16 08:20:00,59.7,55.0,30.19,WNW,288,1.0,-999.0,84,-99.99,,,0.00,84,weatherlink.com 1.10,2013-03-16 12:20:00,
2013-03-16 08:35:00,60.3,56.0,30.20,WNW,290,6.0,-999.0,84,-99.99,,,0.00,58,weatherlink.com 1.10,2013-03-16 12:35:00,
2013-03-16 08:50:00,60.7,56.0,30.20,West,281,0.0,-999.0,84,-99.99,,,0.00,105,weatherlink.com 1.10,2013-03-16 12:50:00,
2013-03-16 09:05:00,61.3,56.0,30.20,West,281,0.0,-999.0,83,-99.99,,,0.00,304,weatherlink.com 1.10,2013-03-16 13:05:00,
2013-03-16 09:20:00,62.7,58.0,30.20,West,281,0.0,-999.0,83,-99.99,,,0.00,436,weatherlink.com 1.10,2013-03-16 13:20:00,
2013-03-16 09:35:00,64.5,58.0,30.20,West,281,0.0,-999.0,80,-99.99,,,0.00,425,weatherlink.com 1.10,2013-03-16 13:35:00,
2013-03-16 09:50:00,66.1,58.0,30.20,West,281,0.0,-999.0,75,-99.99,,,0.00,438,weatherlink.com 1.10,2013-03-16 13:50:00,
2013-03-16 10:05:00,66.9,58.0,30.20,West,281,0.0,-999.0,73,-99.99,,,0.00,543,weatherlink.com 1.10,2013-03-16 14:05:00,
2013-03-16 10:20:00,70.2,60.0,30.20,ESE,112,0.0,-999.0,69,-99.99,,,0.00,675,weatherlink.com 1.10,2013-03-16 14:20:00,
2013-03-16 10:35:00,72.8,58.0,30.20,East,88,2.0,-999.0,61,-99.99,,,0.00,717,weatherlink.com 1.10,2013-03-16 14:35:00,
2013-03-16 10:50:00,74.6,57.0,30.20,ESE,107,3.0,-999.0,55,-99.99,,,0.00,821,weatherlink.com 1.10,2013-03-16 14:50:00,
2013-03-16 11:05:00,75.1,57.0,30.20,ENE,73,1.0,-999.0,53,-99.99,,,0.00,807,weatherlink.com 1.10,2013-03-16 15:05:00,
2013-03-16 11:20:00,75.4,57.0,30.19,ENE,62,1.0,-999.0,53,-99.99,,,0.00,837,weatherlink.com 1.10,2013-03-16 15:20:00,
2013-03-16 11:35:00,75.4,58.0,30.19,East,94,6.0,-999.0,55,-99.99,,,0.00,889,weatherlink.com 1.10,2013-03-16 15:35:00,
2013-03-16 11:50:00,77.0,58.0,30.19,SE,132,7.0,-999.0,53,-99.99,,,0.00,907,weatherlink.com 1.10,2013-03-16 15:50:00,
2013-03-16 12:05:00,78.3,58.0,30.18,ESE,109,6.0,-999.0,50,-99.99,,,0.00,914,weatherlink.com 1.10,2013-03-16 16:05:00,
2013-03-16 12:20:00,78.8,57.0,30.18,East,96,6.0,-999.0,48,-99.99,,,0.00,944,weatherlink.com 1.10,2013-03-16 16:20:00,
2013-03-16 12:35:00,79.1,59.0,30.18,SE,124,6.0,-999.0,50,-99.99,,,0.00,932,weatherlink.com 1.10,2013-03-16 16:35:00,
2013-03-16 12:50:00,79.9,59.0,30.17,ESE,109,4.0,-999.0,49,-99.99,,,0.00,891,weatherlink.com 1.10,2013-03-16 16:50:00,
2013-03-16 13:05:00,79.4,59.0,30.17,SSE,155,6.0,-999.0,50,-99.99,,,0.00,939,weatherlink.com 1.10,2013-03-16 17:05:00,
2013-03-16 13:20:00,80.1,60.0,30.17,ESE,105,5.0,-999.0,50,-99.99,,,0.00,979,weatherlink.com 1.10,2013-03-16 17:20:00,
2013-03-16 13:35:00,80.7,60.0,30.16,East,84,7.0,-999.0,50,-99.99,,,0.00,954,weatherlink.com 1.10,2013-03-16 17:35:00,
2013-03-16 13:50:00,80.6,60.0,30.16,ESE,115,4.0,-999.0,50,-99.99,,,0.00,940,weatherlink.com 1.10,2013-03-16 17:50:00,
2013-03-16 14:05:00,80.3,60.0,30.15,SE,131,9.0,-999.0,50,-99.99,,,0.00,937,weatherlink.com 1.10,2013-03-16 18:05:00,
2013-03-16 14:20:00,80.6,60.0,30.14,SE,128,6.0,-999.0,50,-99.99,,,0.00,921,weatherlink.com 1.10,2013-03-16 18:20:00,
2013-03-16 14:35:00,80.5,61.0,30.14,SE,125,5.0,-999.0,52,-99.99,,,0.00,904,weatherlink.com 1.10,2013-03-16 18:35:00,
2013-03-16 14:50:00,80.7,60.0,30.13,SE,132,6.0,-999.0,50,-99.99,,,0.00,874,weatherlink.com 1.10,2013-03-16 18:50:00,
2013-03-16 15:05:00,80.2,60.0,30.12,SE,136,7.0,-999.0,50,-99.99,,,0.00,846,weatherlink.com 1.10,2013-03-16 19:05:00,
2013-03-16 15:20:00,80.0,61.0,30.12,ESE,123,10.0,-999.0,52,-99.99,,,0.00,807,weatherlink.com 1.10,2013-03-16 19:20:00,
2013-03-16 15:35:00,79.4,61.0,30.12,SE,131,13.0,-999.0,53,-99.99,,,0.00,754,weatherlink.com 1.10,2013-03-16 19:35:00,
2013-03-16 15:50:00,79.3,60.0,30.11,ESE,113,10.0,-999.0,52,-99.99,,,0.00,733,weatherlink.com 1.10,2013-03-16 19:50:00,
2013-03-16 16:05:00,78.8,60.0,30.11,SE,140,8.0,-999.0,53,-99.99,,,0.00,694,weatherlink.com 1.10,2013-03-16 20:05:00,
2013-03-16 16:20:00,78.7,61.0,30.11,SE,146,10.0,-999.0,54,-99.99,,,0.00,652,weatherlink.com 1.10,2013-03-16 20:20:00,
2013-03-16 16:35:00,78.1,60.0,30.10,ESE,115,6.0,-999.0,54,-99.99,,,0.00,592,weatherlink.com 1.10,2013-03-16 20:35:00,
2013-03-16 16:50:00,77.6,60.0,30.10,ESE,114,9.0,-999.0,54,-99.99,,,0.00,533,weatherlink.com 1.10,2013-03-16 20:50:00,
2013-03-16 17:05:00,77.1,60.0,30.10,ESE,114,9.0,-999.0,55,-99.99,,,0.00,485,weatherlink.com 1.10,2013-03-16 21:05:00,
2013-03-16 17:20:00,76.4,58.0,30.11,ESE,116,10.0,-999.0,54,-99.99,,,0.00,427,weatherlink.com 1.10,2013-03-16 21:20:00,
2013-03-16 17:35:00,75.6,58.0,30.10,ESE,117,7.0,-999.0,55,-99.99,,,0.00,364,weatherlink.com 1.10,2013-03-16 21:35:00,
2013-03-16 17:50:00,74.9,58.0,30.10,SE,133,14.0,-999.0,56,-99.99,,,0.00,309,weatherlink.com 1.10,2013-03-16 21:50:00,
2013-03-16 18:05:00,74.3,57.0,30.10,ESE,122,9.0,-999.0,56,-99.99,,,0.00,248,weatherlink.com 1.10,2013-03-16 22:05:00,
2013-03-16 18:20:00,73.4,57.0,30.11,SSE,165,9.0,-999.0,57,-99.99,,,0.00,190,weatherlink.com 1.10,2013-03-16 22:20:00,
2013-03-16 18:35:00,72.6,57.0,30.11,SE,126,10.0,-999.0,59,-99.99,,,0.00,125,weatherlink.com 1.10,2013-03-16 22:35:00,
2013-03-16 18:50:00,71.8,57.0,30.11,SSE,167,3.0,-999.0,60,-99.99,,,0.00,62,weatherlink.com 1.10,2013-03-16 22:50:00,
2013-03-16 19:05:00,71.0,57.0,30.11,SE,140,13.0,-999.0,62,-99.99,,,0.00,32,weatherlink.com 1.10,2013-03-16 23:05:00,
2013-03-16 19:20:00,70.1,57.0,30.11,SE,144,6.0,-999.0,63,-99.99,,,0.00,11,weatherlink.com 1.10,2013-03-16 23:20:00,
2013-03-16 19:35:00,69.5,56.0,30.10,SSE,154,13.0,-999.0,63,-99.99,,,0.00,0,weatherlink.com 1.10,2013-03-16 23:35:00,
2013-03-16 19:50:00,69.2,57.0,30.10,SSE,153,13.0,-999.0,65,-99.99,,,0.00,0,weatherlink.com 1.10,2013-03-16 23:50:00,
2013-03-16 20:05:00,68.9,57.0,30.11,SSE,153,15.0,-999.0,65,-99.99,,,0.00,0,weatherlink.com 1.10,2013-03-17 00:05:00,
2013-03-16 20:20:00,68.7,56.0,30.11,SE,133,5.0,-999.0,64,-99.99,,,0.00,0,weatherlink.com 1.10,2013-03-17 00:20:00,
2013-03-16 20:35:00,68.8,57.0,30.12,SE,144,1.0,-999.0,66,-99.99,,,0.00,0,weatherlink.com 1.10,2013-03-17 00:35:00,
2013-03-16 20:50:00,68.8,57.0,30.12,SSE,155,11.0,-999.0,67,-99.99,,,0.00,0,weatherlink.com 1.10,2013-03-17 00:50:00,
2013-03-16 21:05:00,68.5,57.0,30.12,SSE,151,4.0,-999.0,67,-99.99,,,0.00,0,weatherlink.com 1.10,2013-03-17 01:05:00,
2013-03-16 21:20:00,68.5,57.0,30.12,SSE,165,12.0,-999.0,68,-99.99,,,0.00,0,weatherlink.com 1.10,2013-03-17 01:20:00,
2013-03-16 21:35:00,68.4,57.0,30.13,SSE,164,12.0,-999.0,68,-99.99,,,0.00,0,weatherlink.com 1.10,2013-03-17 01:35:00,
2013-03-16 21:50:00,68.3,58.0,30.13,SE,144,10.0,-999.0,69,-99.99,,,0.00,0,weatherlink.com 1.10,2013-03-17 01:50:00,
2013-03-16 22:05:00,68.3,58.0,30.14,SSE,159,6.0,-999.0,69,-99.99,,,0.00,0,weatherlink.com 1.10,2013-03-17 02:05:00,
2013-03-16 22:20:00,68.2,58.0,30.14,SSE,153,8.0,-999.0,69,-99.99,,,0.00,0,weatherlink.com 1.10,2013-03-17 02:20:00,
2013-03-16 22:35:00,68.1,58.0,30.14,South,173,5.0,-999.0,69,-99.99,,,0.00,0,weatherlink.com 1.10,2013-03-17 02:35:00,
2013-03-16 22:50:00,68.1,57.0,30.14,South,181,4.0,-999.0,68,-99.99,,,0.00,0,weatherlink.com 1.10,2013-03-17 02:50:00,
2013-03-16 23:05:00,68.0,57.0,30.14,SSE,156,7.0,-999.0,68,-99.99,,,0.00,0,weatherlink.com 1.10,2013-03-17 03:05:00,
2013-03-16 23:20:00,68.0,57.0,30.14,South,174,7.0,-999.0,68,-99.99,,,0.00,0,weatherlink.com 1.10,2013-03-17 03:20:00,
2013-03-16 23:35:00,68.0,57.0,30.14,South,191,5.0,-999.0,68,-99.99,,,0.00,0,weatherlink.com 1.10,2013-03-17 03:35:00,
2013-03-16 23:50:00,68.0,57.0,30.14,SSW,209,8.0,-999.0,68,-99.99,,,0.00,0,weatherlink.com 1.10,2013-03-17 03:50:00,